EW4052 Weather Reports


time (UTC)temp
C
wind
direction
speed
KPH
gust
KPH
rain 1hr
cm
rain 24hr
cm
rain mn
cm
humidity
%
barometer
mb
20260905131501 22 23 0.0 0.0 0.00 0.00 0.00 100 1012.8
20260905130057 -17 23 0.0 0.0 0.00 0.00 0.00 1012.6
20260905124552 -17 23 0.0 0.0 0.00 0.00 0.00 1012.3
20260905123049 -17 23 0.0 0.0 0.00 0.00 0.00 1012.1
20260905121544 -17 23 0.0 0.0 0.00 0.00 0.00 1011.9
20260905120039 -17 23 0.0 0.0 0.00 0.00 0.00 1011.9
20260905114542 -17 20 0.0 0.0 0.00 0.00 0.00 1011.7
20260905113037 -17 19 0.0 0.0 0.00 0.00 0.00 1011.7
20260905111526 -17 18 0.0 4.8 0.00 0.00 0.00 1011.7
20260905110022 -17 15 0.0 8.0 0.00 0.00 0.00 1011.6
20260905104522 -17 15 0.0 3.2 0.00 0.00 0.00 1011.8
20260905103023 -17 14 0.0 6.4 0.00 0.00 0.00 1011.9
20260905101509 22 9 0.0 8.0 0.00 0.00 0.00 100 1011.8
20260905100010 21 29 0.0 0.0 0.00 0.00 0.00 100 1011.9
20260905094600 21 29 0.0 0.0 0.00 0.00 0.00 100 1011.6
20260905093100 21 17 0.0 0.0 0.00 0.00 0.00 100 1011.1
20260905091600 22 15 0.0 0.0 0.00 0.00 0.00 100 1010.9
20260905090046 22 15 0.0 0.0 0.00 0.00 0.00 100 1011.1
20260905084549 22 15 0.0 0.0 0.00 0.00 0.00 100 1011.3
20260905083040 22 27 0.0 8.0 0.00 0.00 0.00 100 1011.3
20260905081534 22 360 0.0 1.6 0.00 0.00 0.00 100 1011.4
20260905080040 22 198 0.0 0.0 0.00 0.00 0.00 100 1011.5
20260905074524 22 198 0.0 0.0 0.00 0.00 0.00 100 1011.3
20260905073024 22 198 0.0 0.0 0.00 0.00 0.00 100 1011.5
20260905071515 22 198 0.0 0.0 0.00 0.00 0.00 100 1011.4
20260905070016 22 198 0.0 0.0 0.00 0.00 0.00 100 1011.4
20260905064525 22 198 0.0 0.0 0.00 0.00 0.00 100 1011.4
20260905063011 22 198 0.0 0.0 0.00 0.00 0.00 100 1011.4
20260905061506 22 198 0.0 0.0 0.00 0.00 0.00 100 1011.5
20260905060005 22 198 0.0 0.0 0.00 0.00 0.00 100 1011.3
20260905054558 23 198 0.0 0.0 0.00 0.00 0.00 100 1011.2
20260905053059 23 198 0.0 0.0 0.00 0.00 0.00 100 1011.2
20260905051549 23 198 0.0 0.0 0.00 0.00 0.00 100 1011.1
20260905050044 23 198 0.0 0.0 0.00 0.00 0.00 100 1011.1
20260905044542 23 198 0.0 0.0 0.00 0.00 0.00 100 1010.9
20260905043041 23 198 0.0 0.0 0.00 0.00 0.00 100 1010.9
20260905041540 23 198 0.0 0.0 0.00 0.00 0.00 100 1011.0
20260905040040 23 198 0.0 0.0 0.00 0.00 0.00 100 1010.9
20260905034539 23 198 0.0 0.0 0.00 0.00 0.00 100 1011.0
20260905033037 24 198 0.0 0.0 0.00 0.00 0.00 100 1011.0
20260905031531 24 198 0.0 0.0 0.00 0.00 0.00 100 1010.9
20260905030034 25 198 0.0 0.0 0.00 0.00 0.00 100 1010.9
20260905024530 25 198 0.0 0.0 0.00 0.00 0.00 5 1010.8
20260905023020 25 198 0.0 0.0 0.00 0.00 0.00 12 1010.6
20260905021518 25 198 0.0 0.0 0.00 0.00 0.00 18 1010.5
20260905020025 25 198 0.0 0.0 0.00 0.00 0.00 26 1010.4
20260905014516 26 198 0.0 0.0 0.00 0.00 0.00 24 1010.2
20260905013014 26 198 0.0 0.0 0.00 0.00 0.00 25 1010.1
20260905011510 27 198 0.0 0.0 0.00 0.00 0.00 29 1009.8
20260905010010 27 198 0.0 0.0 0.00 0.00 0.00 43 1009.7
20260905004510 28 198 0.0 0.0 0.00 0.00 0.00 49 1009.7
20260905003008 28 198 0.0 0.0 0.00 0.00 0.00 56 1009.7
20260905001507 28 198 0.0 0.0 0.00 0.00 0.00 63 1009.6
20260905000005 29 198 0.0 0.0 0.00 0.00 0.00 67 1009.5
20260904234507 30 198 0.0 0.0 0.00 0.00 0.00 69 1009.6
20260904233004 30 198 0.0 0.0 0.00 0.00 0.00 69 1009.4
20260904231504 31 198 0.0 0.0 0.00 0.00 0.00 69 1009.2
20260904230003 31 197 0.0 1.6 0.00 0.00 0.00 69 1009.2
20260904224501 31 202 0.0 4.8 0.00 0.00 0.00 69 1009.1
20260904223001 31 246 0.0 0.0 0.00 0.00 0.00 68 1008.9
20260904221610 31 247 3.2 8.0 0.00 0.00 0.00 69 1008.8
20260904214611 31 360 0.0 0.0 0.00 0.00 0.00 69 1008.8
20260904213058 31 159 0.0 0.0 0.00 0.00 0.00 69 1008.9
20260904211606 31 159 0.0 3.2 0.00 0.00 0.00 67 1009.1
20260904210057 32 222 0.0 4.8 0.00 0.00 0.00 66 1009.0
20260904204556 32 213 0.0 8.0 0.00 0.00 0.00 67 1008.9
20260904203057 32 259 0.0 0.0 0.00 0.00 0.00 67 1008.8
20260904201554 32 124 0.0 3.2 0.00 0.00 0.00 68 1008.8
20260904200106 31 138 0.0 4.8 0.00 0.00 0.00 68 1008.8
20260904194557 31 339 0.0 3.2 0.00 0.00 0.00 69 1008.9
20260904193053 31 89 0.0 11.3 0.00 0.00 0.00 68 1008.9
20260904191552 31 14 0.0 9.7 0.00 0.00 0.00 68 1009.0
20260904190051 31 328 0.0 6.4 0.00 0.00 0.00 68 1008.8
20260904184550 31 201 0.0 9.7 0.00 0.00 0.00 69 1008.8
20260904183050 31 224 0.0 1.6 0.00 0.00 0.00 68 1009.0
20260904181554 31 250 0.0 4.8 0.00 0.00 0.00 66 1009.1
20260904180049 32 317 0.0 4.8 0.00 0.00 0.00 64 1009.1
20260904174553 32 234 0.0 0.0 0.00 0.00 0.00 66 1009.2
20260904173045 30 234 0.0 0.0 0.00 0.00 0.00 69 1009.3
20260904171554 30 234 0.0 0.0 0.00 0.00 0.00 68 1009.3
20260904170040 30 234 0.0 0.0 0.00 0.00 0.00 68 1009.3
20260904164538 29 234 0.0 0.0 0.00 0.03 0.00 69 1009.2
20260904163033 28 234 0.0 6.4 0.00 0.03 0.00 70 1009.3
20260904161535 28 233 0.0 6.4 0.00 0.03 0.00 70 1009.4
20260904160028 28 239 0.0 8.0 0.00 0.03 0.00 70 1009.3
20260904154527 27 241 0.0 11.3 0.00 0.03 0.00 69 1009.2
20260904153025 27 240 3.2 9.7 0.00 0.03 0.00 69 1009.2
20260904151522 27 217 0.0 9.7 0.00 0.03 0.00 66 1009.2
20260904150021 26 218 0.0 11.3 0.00 0.03 0.00 66 1009.4
20260904144516 26 227 0.0 9.7 0.00 0.10 0.00 62 1009.3
20260904143013 25 151 0.0 11.3 0.00 0.10 0.00 58 1009.4
20260904141510 25 209 1.6 9.7 0.00 0.10 0.00 53 1009.3
20260904140011 25 173 0.0 4.8 0.00 0.10 0.00 51 1009.2
20260904134506 24 187 0.0 4.8 0.00 0.10 0.00 41 1009.2
20260904133005 23 172 0.0 6.4 0.00 0.10 0.00 14 1008.9